When you browse on this site, cookies collect data to enhance your experience and personalize the content and advertising you see.
Visit our Privacy Policy to learn more. By continuing to use the site, you agree to this use of cookies and data.
  • In Portugal
  • List of Countries
  • For 7 days
  • Water Temperature
  • Weather Map
  • Weather Widgets
  • user-avatar
    Login

    Hourly Weather Newport

    Today, 22 September, Sunday

    Time Temperature Precipitation Wind Pressure Humidity
    00:00 +16°C° 0 mm 5 mps 750 mmHg 91%
    01:00 +16°C° 0 mm 5 mps 750 mmHg 92%
    02:00 +16°C° 0 mm 5 mps 749 mmHg 94%
    03:00 +16°C° 0 mm 5 mps 748 mmHg 95%
    04:00 +17°C° 0.6 mm 4 mps 748 mmHg 95%
    05:00 +17°C° 0.6 mm 3 mps 748 mmHg 95%
    06:00 +17°C° 0.6 mm 3 mps 748 mmHg 96%
    07:00 +17°C° 0.4 mm 3 mps 749 mmHg 95%
    08:00 +17°C° 0.4 mm 4 mps 749 mmHg 95%
    09:00 +17°C° 0.4 mm 4 mps 749 mmHg 94%
    10:00 +18°C° 0.2 mm 4 mps 749 mmHg 91%
    11:00 +18°C° 0.2 mm 4 mps 749 mmHg 88%
    12:00 +19°C° 0.2 mm 4 mps 749 mmHg 85%
    13:00 +19°C° 0.8 mm 4 mps 749 mmHg 84%
    14:00 +19°C° 0.8 mm 4 mps 749 mmHg 82%
    15:00 +19°C° 0.8 mm 4 mps 749 mmHg 81%
    16:00 +18°C° 0.6 mm 4 mps 750 mmHg 84%
    17:00 +17°C° 0.6 mm 3 mps 750 mmHg 87%
    18:00 +16°C° 0.6 mm 3 mps 750 mmHg 90%
    19:00 +14°C° 0.2 mm 4 mps 750 mmHg 91%
    20:00 +14°C° 0.2 mm 4 mps 751 mmHg 92%
    21:00 +14°C° 0.2 mm 5 mps 752 mmHg 93%
    22:00 +13°C° 0.2 mm 5 mps 752 mmHg 94%
    23:00 +13°C° 0.2 mm 5 mps 753 mmHg 94%

    Tomorrow, 23 September, Monday

    Time Temperature Precipitation Wind Pressure Humidity
    00:00 +13°C° 0.2 mm 5 mps 753 mmHg 94%
    01:00 +12°C° 0.1 mm 5 mps 753 mmHg 94%
    02:00 +12°C° 0.1 mm 4 mps 753 mmHg 94%
    03:00 +12°C° 0.1 mm 4 mps 754 mmHg 94%
    04:00 +12°C° 0 mm 4 mps 754 mmHg 94%
    05:00 +11°C° 0 mm 4 mps 754 mmHg 94%
    06:00 +11°C° 0 mm 4 mps 755 mmHg 93%
    07:00 +13°C° 0.1 mm 5 mps 755 mmHg 92%
    08:00 +14°C° 0.1 mm 5 mps 755 mmHg 90%
    09:00 +15°C° 0.1 mm 6 mps 755 mmHg 88%
    10:00 +15°C° 0.2 mm 7 mps 755 mmHg 87%
    11:00 +16°C° 0.2 mm 7 mps 754 mmHg 86%
    12:00 +16°C° 0.2 mm 8 mps 754 mmHg 85%
    13:00 +15°C° 1.4 mm 8 mps 753 mmHg 88%
    14:00 +15°C° 1.4 mm 9 mps 753 mmHg 92%
    15:00 +13°C° 1.4 mm 10 mps 752 mmHg 95%
    16:00 +13°C° 1.1 mm 9 mps 752 mmHg 96%
    17:00 +15°C° 1.1 mm 8 mps 751 mmHg 97%
    18:00 +16°C° 1.1 mm 7 mps 751 mmHg 97%
    19:00 +16°C° 0.9 mm 6 mps 751 mmHg 97%
    20:00 +16°C° 0.9 mm 6 mps 751 mmHg 97%
    21:00 +16°C° 0.9 mm 6 mps 751 mmHg 96%
    22:00 +16°C° 1.1 mm 6 mps 751 mmHg 96%
    23:00 +16°C° 1.1 mm 6 mps 750 mmHg 97%

    Day after tomorrow, 24 September, Tuesday

    Time Temperature Precipitation Wind Pressure Humidity
    00:00 +16°C° 1.1 mm 6 mps 750 mmHg 97%
    01:00 +16°C° 0.5 mm 6 mps 749 mmHg 97%
    02:00 +16°C° 0.5 mm 5 mps 749 mmHg 97%
    03:00 +16°C° 0.5 mm 5 mps 748 mmHg 96%
    04:00 +16°C° 1.7 mm 5 mps 748 mmHg 96%
    05:00 +16°C° 1.7 mm 5 mps 747 mmHg 95%
    06:00 +15°C° 1.7 mm 5 mps 746 mmHg 94%
    07:00 +15°C° 1.1 mm 5 mps 746 mmHg 94%
    08:00 +15°C° 1.1 mm 6 mps 747 mmHg 93%
    09:00 +15°C° 1.1 mm 6 mps 747 mmHg 93%
    10:00 +15°C° 0.2 mm 7 mps 747 mmHg 90%
    11:00 +16°C° 0.2 mm 7 mps 747 mmHg 88%
    12:00 +16°C° 0.2 mm 8 mps 747 mmHg 86%
    13:00 +16°C° 0.7 mm 9 mps 747 mmHg 88%
    14:00 +15°C° 0.7 mm 9 mps 747 mmHg 90%
    15:00 +15°C° 0.7 mm 9 mps 747 mmHg 92%
    16:00 +14°C° 0.6 mm 10 mps 747 mmHg 93%
    17:00 +13°C° 0.6 mm 10 mps 747 mmHg 94%
    18:00 +13°C° 0.6 mm 10 mps 747 mmHg 95%
    19:00 +13°C° 1.1 mm 10 mps 747 mmHg 95%
    20:00 +13°C° 1.1 mm 10 mps 747 mmHg 95%
    21:00 +13°C° 1.1 mm 10 mps 747 mmHg 96%
    22:00 +13°C° 1.4 mm 11 mps 747 mmHg 95%
    23:00 +13°C° 1.4 mm 11 mps 746 mmHg 94%

    25 September, Wednesday

    Time Temperature Precipitation Wind Pressure Humidity
    00:00 +14°C° 1.4 mm 12 mps 746 mmHg 93%
    01:00 +14°C° 1.3 mm 12 mps 746 mmHg 94%
    02:00 +14°C° 1.3 mm 12 mps 747 mmHg 95%
    03:00 +14°C° 1.3 mm 12 mps 747 mmHg 95%
    04:00 +14°C° 0.2 mm 11 mps 747 mmHg 95%
    05:00 +14°C° 0.2 mm 10 mps 747 mmHg 94%
    06:00 +13°C° 0.2 mm 9 mps 748 mmHg 94%
    07:00 +15°C° 0 mm 8 mps 748 mmHg 92%
    08:00 +15°C° 0 mm 7 mps 749 mmHg 90%
    09:00 +15°C° 0 mm 6 mps 749 mmHg 89%
    10:00 +15°C° 0.3 mm 6 mps 749 mmHg 90%
    11:00 +15°C° 0.3 mm 7 mps 749 mmHg 92%
    12:00 +15°C° 0.3 mm 7 mps 750 mmHg 94%
    13:00 +15°C° 0.3 mm 7 mps 749 mmHg 95%
    14:00 +15°C° 0.3 mm 7 mps 749 mmHg 96%
    15:00 +16°C° 0.3 mm 6 mps 749 mmHg 97%
    16:00 +16°C° 0.7 mm 7 mps 749 mmHg 97%
    17:00 +16°C° 0.7 mm 7 mps 748 mmHg 98%
    18:00 +16°C° 0.7 mm 7 mps 748 mmHg 98%
    19:00 +16°C° 1.3 mm 8 mps 748 mmHg 97%
    20:00 +16°C° 1.3 mm 9 mps 748 mmHg 96%
    21:00 +16°C° 1.3 mm 10 mps 748 mmHg 96%
    22:00 +16°C° 0.2 mm 10 mps 748 mmHg 95%
    23:00 +16°C° 0.2 mm 10 mps 748 mmHg 95%

    26 September, Thursday

    Time Temperature Precipitation Wind Pressure Humidity
    00:00 +16°C° 0.2 mm 10 mps 747 mmHg 94%
    01:00 +16°C° 1.1 mm 9 mps 747 mmHg 94%
    02:00 +16°C° 1.1 mm 9 mps 748 mmHg 94%
    03:00 +16°C° 1.1 mm 8 mps 748 mmHg 93%
    04:00 +15°C° 0.2 mm 7 mps 748 mmHg 92%
    05:00 +14°C° 0.2 mm 7 mps 748 mmHg 91%
    06:00 +13°C° 0.2 mm 6 mps 748 mmHg 89%
    07:00 +13°C° 0.1 mm 6 mps 748 mmHg 88%
    08:00 +14°C° 0.1 mm 7 mps 748 mmHg 86%
    09:00 +15°C° 0.1 mm 8 mps 748 mmHg 85%
    10:00 +15°C° 0.5 mm 8 mps 748 mmHg 86%
    11:00 +13°C° 0.5 mm 8 mps 748 mmHg 87%
    12:00 +13°C° 0.5 mm 9 mps 748 mmHg 89%
    13:00 +13°C° 0.8 mm 9 mps 748 mmHg 88%
    14:00 +13°C° 0.8 mm 8 mps 748 mmHg 88%
    15:00 +13°C° 0.8 mm 8 mps 748 mmHg 88%
    16:00 +13°C° 0.3 mm 8 mps 748 mmHg 88%
    17:00 +12°C° 0.3 mm 8 mps 748 mmHg 88%
    18:00 +12°C° 0.3 mm 8 mps 748 mmHg 88%
    19:00 +12°C° 0.5 mm 8 mps 749 mmHg 89%
    20:00 +12°C° 0.5 mm 8 mps 749 mmHg 90%
    21:00 +12°C° 0.5 mm 8 mps 749 mmHg 90%
    22:00 +12°C° 0.6 mm 8 mps 749 mmHg 91%
    23:00 +12°C° 0.6 mm 8 mps 749 mmHg 91%

    27 September, Friday

    Time Temperature Precipitation Wind Pressure Humidity
    00:00 +12°C° 0.6 mm 8 mps 749 mmHg 91%
    01:00 +12°C° 0.6 mm 7 mps 749 mmHg 91%
    02:00 +11°C° 0.6 mm 7 mps 749 mmHg 91%
    03:00 +11°C° 0.6 mm 7 mps 749 mmHg 91%
    04:00 +11°C° 0.5 mm 7 mps 749 mmHg 90%
    05:00 +11°C° 0.5 mm 7 mps 749 mmHg 90%
    06:00 +12°C° 0.5 mm 8 mps 749 mmHg 89%
    07:00 +12°C° 0.4 mm 8 mps 749 mmHg 88%
    08:00 +12°C° 0.4 mm 8 mps 749 mmHg 86%
    09:00 +13°C° 0.4 mm 8 mps 749 mmHg 85%
    10:00 +13°C° 0.4 mm 9 mps 749 mmHg 86%
    11:00 +13°C° 0.4 mm 9 mps 749 mmHg 87%
    12:00 +13°C° 0.4 mm 9 mps 749 mmHg 88%
    13:00 +13°C° 0.5 mm 10 mps 749 mmHg 88%
    14:00 +13°C° 0.5 mm 10 mps 749 mmHg 88%
    15:00 +14°C° 0.5 mm 11 mps 749 mmHg 88%
    16:00 +13°C° 0.6 mm 10 mps 749 mmHg 89%
    17:00 +13°C° 0.6 mm 10 mps 749 mmHg 89%
    18:00 +13°C° 0.6 mm 10 mps 749 mmHg 90%
    19:00 +13°C° 1.1 mm 10 mps 749 mmHg 91%
    20:00 +13°C° 1.1 mm 10 mps 749 mmHg 91%
    21:00 +13°C° 1.1 mm 10 mps 749 mmHg 92%
    22:00 +13°C° 0.9 mm 10 mps 749 mmHg 92%
    23:00 +13°C° 0.9 mm 10 mps 749 mmHg 91%
    Show more